MPH68R LKPR-LRTR

Flight info

Callsign MPH68R
Flight time N/A
Altitude 41000
Route VOZ4B/30 VOZ DCT NELPA DCT PISAM DCT PESAT DCT BUG DCT TEGRI
Aircraft MD11/H-SDE1E2E3FGHIJ2J3J4J5M1RWXY/LB1D1

Departure

Time N/A
Airport Václav Havel Airport Prague (LKPR)

Arrival

Time 2026-04-24 19:45
Airport Timișoara Traian Vuia International Airport (LRTR)
Time Latitude Longitude Altitude Speed Heading
2026-04-24 18:54 48.45957 16.01260 36105 ft 500 kts 135°
2026-04-24 18:55 48.40930 16.08473 36891 ft 499 kts 135°
2026-04-24 18:55 48.38423 16.12062 37279 ft 498 kts 135°
2026-04-24 18:55 48.36760 16.14439 37525 ft 498 kts 135°
2026-04-24 18:56 48.36302 16.15093 37594 ft 497 kts 135°
2026-04-24 18:56 48.33907 16.18514 37948 ft 497 kts 135°
2026-04-24 18:56 48.31407 16.22078 38296 ft 496 kts 135°
2026-04-24 18:56 48.28899 16.25649 38658 ft 496 kts 135°
2026-04-24 18:57 48.26388 16.29200 38932 ft 496 kts 135°
2026-04-24 18:57 48.23873 16.32736 39193 ft 495 kts 135°
2026-04-24 18:57 48.21366 16.36260 39463 ft 494 kts 135°
2026-04-24 18:57 48.18856 16.39795 39724 ft 494 kts 135°
2026-04-24 18:58 48.16361 16.43313 39995 ft 493 kts 135°
2026-04-24 18:58 48.13864 16.46836 40254 ft 492 kts 135°
2026-04-24 18:58 48.11377 16.50342 40500 ft 492 kts 135°
2026-04-24 18:58 48.08889 16.53845 40757 ft 491 kts 135°
2026-04-24 18:59 48.07246 16.56157 40927 ft 490 kts 135°
2026-04-24 18:59 48.02272 16.63140 41013 ft 489 kts 135°
2026-04-24 19:00 47.97314 16.70080 41019 ft 488 kts 135°
2026-04-24 19:00 47.92352 16.77007 41025 ft 488 kts 135°
2026-04-24 19:01 47.87393 16.83908 41026 ft 488 kts 135°
2026-04-24 19:01 47.82427 16.90803 41025 ft 488 kts 135°
2026-04-24 19:02 47.77463 16.97674 41020 ft 488 kts 135°
2026-04-24 19:02 47.72496 17.04534 41015 ft 487 kts 135°
2026-04-24 19:03 47.68268 17.12279 41013 ft 482 kts 118°
2026-04-24 19:03 47.65069 17.20993 41011 ft 480 kts 114°
2026-04-24 19:04 47.62088 17.29434 41013 ft 481 kts 115°
2026-04-24 19:04 47.58881 17.38139 41013 ft 481 kts 116°
2026-04-24 19:05 47.55617 17.46789 41016 ft 481 kts 116°
2026-04-24 19:05 47.52334 17.55434 41019 ft 481 kts 116°
2026-04-24 19:06 47.49054 17.64051 41014 ft 481 kts 116°
2026-04-24 19:06 47.45769 17.72664 41020 ft 481 kts 116°
2026-04-24 19:07 47.42479 17.81262 41015 ft 481 kts 116°
2026-04-24 19:07 47.39181 17.89853 41018 ft 481 kts 116°
2026-04-24 19:08 47.35892 17.98391 41014 ft 481 kts 116°
2026-04-24 19:08 47.32585 18.06950 41012 ft 480 kts 116°
2026-04-24 19:09 47.29266 18.15500 41016 ft 481 kts 117°
2026-04-24 19:09 47.25910 18.24018 41016 ft 481 kts 117°
2026-04-24 19:10 47.22562 18.32537 41017 ft 481 kts 117°
2026-04-24 19:10 47.19710 18.39817 41007 ft 481 kts 116°
2026-04-24 19:11 47.16368 18.48336 41008 ft 481 kts 116°
2026-04-24 19:11 47.13049 18.56770 41011 ft 481 kts 117°
2026-04-24 19:12 47.09694 18.65268 41009 ft 481 kts 117°
2026-04-24 19:12 47.06334 18.73752 41011 ft 481 kts 117°
2026-04-24 19:13 47.03510 18.80860 41015 ft 481 kts 117°
2026-04-24 19:13 46.99592 18.90693 40999 ft 481 kts 117°
2026-04-24 19:14 46.96212 18.99147 40999 ft 481 kts 117°
2026-04-24 19:14 46.92831 19.07578 41005 ft 481 kts 117°
2026-04-24 19:15 46.89487 19.15890 41009 ft 481 kts 117°
2026-04-24 19:15 46.86071 19.24300 41009 ft 481 kts 117°
2026-04-24 19:16 46.80919 19.36894 40135 ft 481 kts 117°
2026-04-24 19:16 46.79206 19.41097 39529 ft 481 kts 116°
2026-04-24 19:16 46.77495 19.45297 38933 ft 481 kts 116°
2026-04-24 19:17 46.75787 19.49489 38283 ft 481 kts 116°
2026-04-24 19:17 46.74081 19.53670 37667 ft 479 kts 116°
2026-04-24 19:17 46.72380 19.57832 37118 ft 476 kts 116°
2026-04-24 19:17 46.70692 19.61953 36598 ft 472 kts 116°
2026-04-24 19:18 46.69012 19.66045 36071 ft 468 kts 116°
2026-04-24 19:18 46.67360 19.70099 35528 ft 463 kts 115°
2026-04-24 19:18 46.65904 19.74239 34892 ft 455 kts 110°
2026-04-24 19:18 46.64639 19.78430 34289 ft 449 kts 108°
2026-04-24 19:19 46.63468 19.82611 33651 ft 444 kts 107°
2026-04-24 19:19 46.62345 19.86709 32982 ft 440 kts 107°
2026-04-24 19:19 46.61214 19.90823 32333 ft 436 kts 108°
2026-04-24 19:19 46.60069 19.94944 31670 ft 432 kts 108°
2026-04-24 19:20 46.58953 19.98920 31045 ft 429 kts 109°
2026-04-24 19:20 46.57824 20.02907 30428 ft 425 kts 109°
2026-04-24 19:20 46.56699 20.06862 29792 ft 422 kts 109°
2026-04-24 19:20 46.55355 20.10634 29087 ft 422 kts 122°
2026-04-24 19:21 46.53549 20.13983 28409 ft 420 kts 129°
2026-04-24 19:21 46.51603 20.17134 27746 ft 416 kts 130°
2026-04-24 19:21 46.49677 20.20231 27090 ft 410 kts 129°
2026-04-24 19:21 46.47813 20.23331 26456 ft 405 kts 128°
2026-04-24 19:22 46.46593 20.25425 26033 ft 401 kts 127°
2026-04-24 19:22 46.44271 20.29516 25374 ft 391 kts 126°
2026-04-24 19:22 46.42580 20.32550 24952 ft 382 kts 126°
2026-04-24 19:22 46.40938 20.35512 24548 ft 373 kts 126°
2026-04-24 19:23 46.39330 20.38423 24133 ft 367 kts 126°
2026-04-24 19:23 46.37749 20.41285 23719 ft 361 kts 126°
2026-04-24 19:23 46.36193 20.44099 23253 ft 355 kts 126°
2026-04-24 19:23 46.34658 20.46872 22759 ft 350 kts 126°
2026-04-24 19:24 46.33146 20.49603 22285 ft 346 kts 126°
2026-04-24 19:24 46.31646 20.52307 21805 ft 343 kts 126°
2026-04-24 19:24 46.30156 20.54993 21352 ft 341 kts 126°
2026-04-24 19:24 46.28676 20.57655 20902 ft 338 kts 126°
2026-04-24 19:25 46.27208 20.60295 20456 ft 336 kts 126°
2026-04-24 19:25 46.25749 20.62913 20011 ft 333 kts 126°
2026-04-24 19:25 46.24298 20.65516 19569 ft 331 kts 126°
2026-04-24 19:25 46.22861 20.68092 19150 ft 329 kts 127°
2026-04-24 19:26 46.21428 20.70658 18714 ft 327 kts 127°
2026-04-24 19:26 46.20006 20.73201 18307 ft 325 kts 127°
2026-04-24 19:26 46.18591 20.75730 17846 ft 322 kts 127°
2026-04-24 19:26 46.17188 20.78234 17369 ft 318 kts 127°
2026-04-24 19:27 46.15812 20.80688 16920 ft 319 kts 127°
2026-04-24 19:27 46.14420 20.83170 16365 ft 318 kts 127°
2026-04-24 19:27 46.13021 20.85663 15745 ft 322 kts 127°
2026-04-24 19:27 46.11605 20.88184 15136 ft 325 kts 127°
2026-04-24 19:28 46.10173 20.90731 14547 ft 328 kts 127°
2026-04-24 19:28 46.08731 20.93292 13965 ft 330 kts 128°
2026-04-24 19:28 46.07277 20.95871 13337 ft 329 kts 128°
2026-04-24 19:28 46.05852 20.98394 12685 ft 321 kts 128°
2026-04-24 19:29 46.03092 21.03226 11416 ft 303 kts 128°
2026-04-24 19:29 46.01781 21.05515 10992 ft 288 kts 128°
2026-04-24 19:29 46.00542 21.07681 10629 ft 274 kts 127°
2026-04-24 19:30 45.99357 21.09758 10241 ft 264 kts 127°
2026-04-24 19:30 45.98225 21.11746 9908 ft 249 kts 127°
2026-04-24 19:30 45.97126 21.13680 9518 ft 248 kts 127°
2026-04-24 19:30 45.96215 21.15741 9045 ft 242 kts 112°
2026-04-24 19:31 45.95582 21.17968 8581 ft 239 kts 108°
2026-04-24 19:31 45.95011 21.20201 8114 ft 237 kts 107°
2026-04-24 19:31 45.94455 21.22412 7669 ft 234 kts 107°
2026-04-24 19:31 45.93905 21.24613 7303 ft 234 kts 107°
2026-04-24 19:32 45.93359 21.26798 6938 ft 231 kts 108°
2026-04-24 19:32 45.92820 21.28956 6551 ft 229 kts 108°
2026-04-24 19:32 45.92289 21.31082 6179 ft 222 kts 108°
2026-04-24 19:32 45.91779 21.33124 5786 ft 213 kts 108°
2026-04-24 19:33 45.91287 21.35092 5408 ft 206 kts 108°
2026-04-24 19:33 45.90807 21.37010 5025 ft 203 kts 108°
2026-04-24 19:33 45.90332 21.38912 4646 ft 201 kts 108°
2026-04-24 19:33 45.89861 21.40799 4259 ft 200 kts 108°
2026-04-24 19:34 45.89396 21.42658 4023 ft 196 kts 108°
2026-04-24 19:34 45.88943 21.44464 3997 ft 189 kts 108°
2026-04-24 19:34 45.88500 21.46232 4006 ft 188 kts 108°
2026-04-24 19:34 45.88058 21.47996 4012 ft 187 kts 108°
2026-04-24 19:35 45.87630 21.49696 3992 ft 178 kts 108°
2026-04-24 19:35 45.87210 21.51370 4006 ft 178 kts 108°
2026-04-24 19:35 45.86792 21.53034 4008 ft 177 kts 108°
2026-04-24 19:35 45.86374 21.54699 4011 ft 177 kts 108°
2026-04-24 19:36 45.85955 21.56362 4010 ft 177 kts 108°
2026-04-24 19:36 45.85536 21.58026 4005 ft 177 kts 108°
2026-04-24 19:36 45.85114 21.59683 4002 ft 177 kts 109°
2026-04-24 19:36 45.84691 21.61341 4002 ft 177 kts 109°
2026-04-24 19:37 45.84275 21.62973 3996 ft 177 kts 109°
2026-04-24 19:37 45.83854 21.64629 3997 ft 177 kts 109°
2026-04-24 19:37 45.83357 21.66245 3994 ft 177 kts 120°
2026-04-24 19:37 45.82573 21.67601 3989 ft 177 kts 140°
2026-04-24 19:38 45.81515 21.68478 3992 ft 176 kts 162°
2026-04-24 19:38 45.80312 21.68751 3869 ft 175 kts 185°
2026-04-24 19:38 45.79137 21.68400 3646 ft 173 kts 200°
2026-04-24 19:38 45.78001 21.67852 3352 ft 171 kts 201°
2026-04-24 19:39 45.76880 21.67299 3075 ft 170 kts 201°
2026-04-24 19:39 45.75795 21.66679 2982 ft 168 kts 210°
2026-04-24 19:39 45.74874 21.65678 3004 ft 166 kts 230°
2026-04-24 19:39 45.74269 21.64293 3002 ft 164 kts 251°
2026-04-24 19:40 45.74061 21.62714 2995 ft 161 kts 272°
2026-04-24 19:40 45.74262 21.61144 3005 ft 160 kts 288°
2026-04-24 19:40 45.74571 21.59604 2989 ft 161 kts 287°
2026-04-24 19:40 45.74888 21.58064 3008 ft 161 kts 289°
2026-04-24 19:41 45.75255 21.56551 2985 ft 161 kts 291°
2026-04-24 19:41 45.75634 21.55044 2991 ft 161 kts 291°
2026-04-24 19:41 45.76013 21.53533 2938 ft 162 kts 291°
2026-04-24 19:41 45.76390 21.52031 2721 ft 160 kts 291°
2026-04-24 19:42 45.76756 21.50572 2500 ft 149 kts 291°
2026-04-24 19:42 45.77105 21.49184 2302 ft 148 kts 291°
2026-04-24 19:42 45.77452 21.47805 2114 ft 147 kts 291°
2026-04-24 19:42 45.77798 21.46430 1912 ft 146 kts 291°
2026-04-24 19:43 45.78144 21.45059 1735 ft 146 kts 291°
2026-04-24 19:43 45.78489 21.43689 1532 ft 146 kts 291°
2026-04-24 19:43 45.78833 21.42320 1328 ft 146 kts 291°
2026-04-24 19:43 45.79180 21.40943 1124 ft 148 kts 290°
2026-04-24 19:44 45.79526 21.39566 933 ft 150 kts 290°
2026-04-24 19:44 45.79880 21.38156 728 ft 151 kts 290°
2026-04-24 19:44 45.80238 21.36735 524 ft 152 kts 290°
2026-04-24 19:44 45.80594 21.35313 371 ft 145 kts 289°
2026-04-24 19:45 45.80895 21.34118 365 ft 110 kts 290°
2026-04-24 19:45 45.81113 21.33278 367 ft 72 kts 289°
2026-04-24 19:45 45.81239 21.32770 365 ft 36 kts 289°
2026-04-24 19:45 45.81319 21.32449 368 ft 33 kts 290°
2026-04-24 19:46 45.81357 21.32177 366 ft 19 kts 243°
2026-04-24 19:46 45.81274 21.32108 365 ft 12 kts 203°
2026-04-24 19:46 45.81265 21.32103 366 ft 0 kts 202°
2026-04-24 19:46 45.81264 21.32102 366 ft 0 kts 202°
2026-04-24 19:47 45.81262 21.32101 365 ft 0 kts 202°
2026-04-24 19:47 45.81258 21.32099 365 ft 1 kts 202°
2026-04-24 19:47 45.81225 21.32084 364 ft 6 kts 189°
2026-04-24 19:47 45.81180 21.32113 367 ft 10 kts 142°
2026-04-24 19:48 45.81131 21.32181 364 ft 8 kts 121°
2026-04-24 19:48 45.81110 21.32243 363 ft 3 kts 123°
2026-04-24 19:48 45.81079 21.32346 366 ft 8 kts 105°
2026-04-24 19:49 45.81051 21.32430 367 ft 5 kts 149°
2026-04-24 19:49 45.81013 21.32437 362 ft 4 kts 185°
2026-04-24 19:50 45.80999 21.32402 367 ft 1 kts 303°
2026-04-24 19:50 45.81008 21.32393 364 ft 0 kts 323°